Voltar ao catálogo

COSMOS 2540

AtivoNavegaçãoSSO
NORAD 44517·PAYLOAD·🇷🇺 Russia

Lançado Aug 30, 2019 de Plesetsk Cosmodrome

Loading…

Próximas Passagens (próximas 24 horas)

TLE

AtualizadoSource: Space-Track

Época: Sep 14, 2026, 23:55 UTC

1 44517U 19057A   26257.99656397  .00000045  00000-0  76927-4 0  9993
2 44517  99.2083 268.0255 0014737 291.6874  68.2713 13.85961204356315

Acompanhe COSMOS 2540 em tempo real com AllMySat

Download on the App Store